Time,TemperatureF,DewpointF,PressureIn,WindDirection,WindDirectionDegrees,WindSpeedMPH,WindSpeedGustMPH,Humidity,HourlyPrecipIn,Conditions,Clouds,dailyrainin,SolarRadiationWatts/m^2,SoftwareType,DateUTC
2013-04-24 00:01:00,57.7,48.4,29.96,SSE,149,4.0,7.0,71,0.00,,,0.00,0.0,meteohub,2013-04-24 04:01:00,
2013-04-24 00:02:00,57.9,48.6,29.96,SSE,166,3.0,7.0,71,0.00,,,0.00,0.0,meteohub,2013-04-24 04:02:00,
2013-04-24 00:03:00,57.9,48.6,29.96,South,188,4.0,7.0,71,0.00,,,0.00,0.0,meteohub,2013-04-24 04:03:00,
2013-04-24 00:05:00,58.3,48.6,29.96,SE,138,3.0,7.0,70,0.00,,,0.00,0.0,meteohub,2013-04-24 04:05:00,
2013-04-24 00:11:00,58.8,48.7,29.96,ESE,120,4.0,7.0,69,0.00,,,0.00,0.0,meteohub,2013-04-24 04:11:00,
2013-04-24 00:16:00,59.4,48.4,29.96,SE,140,2.0,9.0,67,0.00,,,0.00,0.0,meteohub,2013-04-24 04:16:00,
2013-04-24 00:21:00,60.1,48.7,29.96,SSE,159,6.0,10.0,66,0.00,,,0.00,0.0,meteohub,2013-04-24 04:21:00,
2013-04-24 00:26:00,60.6,48.4,29.95,SSE,148,4.0,13.0,64,0.00,,,0.00,0.0,meteohub,2013-04-24 04:26:00,
2013-04-24 00:32:00,61.2,48.4,29.95,SSE,149,8.0,13.0,63,0.00,,,0.00,0.0,meteohub,2013-04-24 04:32:00,
2013-04-24 00:37:00,61.3,48.2,29.95,SE,146,7.0,14.0,62,0.00,,,0.00,0.0,meteohub,2013-04-24 04:37:00,
2013-04-24 00:42:00,61.5,48.4,29.95,SSW,192,13.0,14.0,62,0.00,,,0.00,0.0,meteohub,2013-04-24 04:42:00,
2013-04-24 00:47:00,61.9,48.2,29.95,South,175,12.0,14.0,61,0.00,,,0.00,0.0,meteohub,2013-04-24 04:47:00,
2013-04-24 00:52:00,62.1,48.4,29.94,SE,140,8.0,14.0,61,0.00,,,0.00,0.0,meteohub,2013-04-24 04:52:00,
2013-04-24 00:57:00,62.1,48.4,29.94,South,169,5.0,14.0,61,0.00,,,0.00,0.0,meteohub,2013-04-24 04:57:00,
2013-04-24 01:02:00,62.2,48.2,29.94,SSE,150,6.0,13.0,60,0.00,,,0.00,0.0,meteohub,2013-04-24 05:02:00,
2013-04-24 01:07:00,62.2,48.2,29.93,SE,130,7.0,13.0,60,0.00,,,0.00,0.0,meteohub,2013-04-24 05:07:00,
2013-04-24 01:12:00,62.1,48.4,29.93,WSW,240,3.0,16.0,61,0.00,,,0.00,0.0,meteohub,2013-04-24 05:12:00,
2013-04-24 01:17:00,62.1,48.4,29.93,South,180,14.0,16.0,61,0.00,,,0.00,0.0,meteohub,2013-04-24 05:17:00,
2013-04-24 01:22:00,62.1,48.4,29.93,SE,140,7.0,14.0,61,0.00,,,0.00,0.0,meteohub,2013-04-24 05:22:00,
2013-04-24 01:27:00,61.9,48.2,29.93,South,175,6.0,14.0,61,0.00,,,0.00,0.0,meteohub,2013-04-24 05:27:00,
2013-04-24 01:32:00,61.9,48.2,29.93,SSW,194,7.0,14.0,61,0.00,,,0.00,0.0,meteohub,2013-04-24 05:32:00,
2013-04-24 01:37:00,61.9,48.7,29.93,South,187,10.0,13.0,62,0.00,,,0.00,0.0,meteohub,2013-04-24 05:37:00,
2013-04-24 01:42:00,62.1,48.9,29.92,South,190,3.0,15.0,62,0.00,,,0.00,0.0,meteohub,2013-04-24 05:42:00,
2013-04-24 01:47:00,62.1,48.9,29.92,SW,223,4.0,15.0,62,0.00,,,0.00,0.0,meteohub,2013-04-24 05:47:00,
2013-04-24 01:52:00,62.1,48.4,29.92,SW,215,5.0,15.0,61,0.00,,,0.00,0.0,meteohub,2013-04-24 05:52:00,
2013-04-24 01:57:00,62.1,48.9,29.92,SE,136,12.0,15.0,62,0.00,,,0.00,0.0,meteohub,2013-04-24 05:57:00,
2013-04-24 02:02:00,62.1,48.9,29.92,South,180,8.0,15.0,62,0.00,,,0.00,0.0,meteohub,2013-04-24 06:02:00,
2013-04-24 02:07:00,62.1,48.9,29.91,SSW,205,10.0,13.0,62,0.00,,,0.00,0.0,meteohub,2013-04-24 06:07:00,
2013-04-24 02:12:00,62.1,48.9,29.91,SSE,163,6.0,13.0,62,0.00,,,0.00,0.0,meteohub,2013-04-24 06:12:00,
2013-04-24 02:17:00,62.1,48.9,29.91,SW,219,8.0,13.0,62,0.00,,,0.00,0.0,meteohub,2013-04-24 06:17:00,
2013-04-24 02:22:00,61.9,48.7,29.91,South,181,6.0,13.0,62,0.00,,,0.00,0.0,meteohub,2013-04-24 06:22:00,
2013-04-24 02:27:00,61.9,48.7,29.91,West,274,7.0,12.0,62,0.00,,,0.00,0.0,meteohub,2013-04-24 06:27:00,
2013-04-24 02:32:00,61.7,48.9,29.91,SW,229,9.0,12.0,63,0.00,,,0.00,0.0,meteohub,2013-04-24 06:32:00,
2013-04-24 02:37:00,61.5,48.7,29.91,SSE,147,5.0,12.0,63,0.00,,,0.00,0.0,meteohub,2013-04-24 06:37:00,
2013-04-24 02:42:00,61.3,49.1,29.90,South,181,9.0,12.0,64,0.00,,,0.00,0.0,meteohub,2013-04-24 06:42:00,
2013-04-24 02:47:00,61.3,49.1,29.90,South,170,5.0,11.0,64,0.00,,,0.00,0.0,meteohub,2013-04-24 06:47:00,
2013-04-24 02:52:00,61.2,48.9,29.90,SSE,150,4.0,11.0,64,0.00,,,0.00,0.0,meteohub,2013-04-24 06:52:00,
2013-04-24 02:57:00,61.2,48.9,29.90,ESE,110,8.0,11.0,64,0.00,,,0.00,0.0,meteohub,2013-04-24 06:57:00,
2013-04-24 03:02:00,61.2,49.3,29.89,SSW,210,5.0,11.0,65,0.00,,,0.00,0.0,meteohub,2013-04-24 07:02:00,
2013-04-24 03:07:00,61.2,49.3,29.88,SE,146,9.0,15.0,65,0.00,,,0.00,0.0,meteohub,2013-04-24 07:07:00,
2013-04-24 03:12:00,61.2,49.3,29.88,South,189,7.0,15.0,65,0.00,,,0.00,0.0,meteohub,2013-04-24 07:12:00,
2013-04-24 03:17:00,61.2,49.3,29.87,South,171,5.0,16.0,65,0.00,,,0.00,0.0,meteohub,2013-04-24 07:17:00,
2013-04-24 03:22:00,61.2,49.6,29.87,SSE,152,4.0,16.0,66,0.00,,,0.00,0.0,meteohub,2013-04-24 07:22:00,
2013-04-24 03:27:00,61.2,49.6,29.87,SSW,210,5.0,16.0,66,0.00,,,0.00,0.0,meteohub,2013-04-24 07:27:00,
2013-04-24 03:32:00,61.2,49.6,29.87,SW,230,6.0,14.0,66,0.00,,,0.00,0.0,meteohub,2013-04-24 07:32:00,
2013-04-24 03:37:00,61.3,49.8,29.86,SSW,194,7.0,14.0,66,0.00,,,0.00,0.0,meteohub,2013-04-24 07:37:00,
2013-04-24 03:42:00,61.5,49.6,29.87,South,179,10.0,14.0,65,0.00,,,0.00,0.0,meteohub,2013-04-24 07:42:00,
2013-04-24 03:47:00,61.5,49.6,29.87,South,190,5.0,15.0,65,0.00,,,0.00,0.0,meteohub,2013-04-24 07:47:00,
2013-04-24 03:52:00,61.5,49.6,29.87,SSW,196,3.0,15.0,65,0.00,,,0.00,0.0,meteohub,2013-04-24 07:52:00,
2013-04-24 03:57:00,61.7,49.8,29.87,SSW,196,5.0,15.0,65,0.00,,,0.00,0.0,meteohub,2013-04-24 07:57:00,
2013-04-24 04:02:00,61.9,50.0,29.86,SW,232,14.0,15.0,65,0.00,,,0.00,0.0,meteohub,2013-04-24 08:02:00,
2013-04-24 04:07:00,61.9,50.0,29.87,SSE,163,4.0,15.0,65,0.00,,,0.00,0.0,meteohub,2013-04-24 08:07:00,
2013-04-24 04:12:00,61.9,50.0,29.87,SSE,160,3.0,14.0,65,0.00,,,0.00,0.0,meteohub,2013-04-24 08:12:00,
2013-04-24 04:17:00,61.5,50.0,29.87,SE,139,3.0,14.0,66,0.00,,,0.00,0.0,meteohub,2013-04-24 08:17:00,
2013-04-24 04:22:00,61.5,50.0,29.87,SW,219,6.0,11.0,66,0.00,,,0.00,0.0,meteohub,2013-04-24 08:22:00,
2013-04-24 04:27:00,61.5,50.0,29.87,SSW,205,6.0,9.0,66,0.00,,,0.00,0.0,meteohub,2013-04-24 08:27:00,
2013-04-24 04:32:00,61.3,49.8,29.87,SW,215,1.0,16.0,66,0.00,,,0.00,0.0,meteohub,2013-04-24 08:32:00,
2013-04-24 04:37:00,61.3,50.4,29.87,West,266,5.0,16.0,67,0.00,,,0.00,0.0,meteohub,2013-04-24 08:37:00,
2013-04-24 04:42:00,61.5,50.5,29.87,SW,224,5.0,16.0,67,0.00,,,0.00,0.0,meteohub,2013-04-24 08:42:00,
2013-04-24 04:47:00,61.5,50.5,29.87,SE,134,2.0,15.0,67,0.00,,,0.00,0.0,meteohub,2013-04-24 08:47:00,
2013-04-24 04:52:00,61.5,50.5,29.87,South,179,4.0,15.0,67,0.00,,,0.00,0.0,meteohub,2013-04-24 08:52:00,
2013-04-24 04:57:00,61.5,50.0,29.87,SW,221,3.0,14.0,66,0.00,,,0.00,0.0,meteohub,2013-04-24 08:57:00,
2013-04-24 05:02:00,61.5,50.5,29.87,SSE,163,5.0,11.0,67,0.00,,,0.00,0.0,meteohub,2013-04-24 09:02:00,
2013-04-24 05:07:00,61.5,50.5,29.87,South,183,2.0,11.0,67,0.00,,,0.00,0.0,meteohub,2013-04-24 09:07:00,
2013-04-24 05:12:00,61.3,50.4,29.87,SW,215,3.0,11.0,67,0.00,,,0.00,0.0,meteohub,2013-04-24 09:12:00,
2013-04-24 05:18:00,61.3,50.4,29.87,SSE,148,4.0,10.0,67,0.00,,,0.00,0.0,meteohub,2013-04-24 09:18:00,
2013-04-24 05:23:00,61.2,50.5,29.87,South,169,6.0,9.0,68,0.00,,,0.00,0.0,meteohub,2013-04-24 09:23:00,
2013-04-24 05:28:00,61.0,50.4,29.88,SW,215,5.0,9.0,68,0.00,,,0.00,0.0,meteohub,2013-04-24 09:28:00,
2013-04-24 05:33:00,61.0,50.7,29.87,South,188,2.0,9.0,69,0.00,,,0.00,0.0,meteohub,2013-04-24 09:33:00,
2013-04-24 05:38:00,61.2,50.5,29.87,West,265,7.0,9.0,68,0.00,,,0.00,0.0,meteohub,2013-04-24 09:38:00,
2013-04-24 05:43:00,61.0,50.4,29.87,SSE,154,6.0,12.0,68,0.00,,,0.00,0.0,meteohub,2013-04-24 09:43:00,
2013-04-24 05:48:00,61.0,50.4,29.86,SW,215,9.0,12.0,68,0.00,,,0.00,0.0,meteohub,2013-04-24 09:48:00,
2013-04-24 05:53:00,60.8,50.2,29.86,SSE,165,10.0,12.0,68,0.00,,,0.00,0.0,meteohub,2013-04-24 09:53:00,
2013-04-24 05:58:00,60.6,50.0,29.86,South,179,3.0,12.0,68,0.00,,,0.00,0.0,meteohub,2013-04-24 09:58:00,
2013-04-24 06:03:00,60.4,49.8,29.85,SE,138,5.0,12.0,68,0.00,,,0.00,0.0,meteohub,2013-04-24 10:03:00,
2013-04-24 06:08:00,60.4,49.8,29.85,South,190,6.0,12.0,68,0.00,,,0.00,0.0,meteohub,2013-04-24 10:08:00,
2013-04-24 06:14:00,60.4,49.8,29.86,SSE,167,5.0,12.0,68,0.00,,,0.00,0.0,meteohub,2013-04-24 10:14:00,
2013-04-24 06:19:00,60.4,49.8,29.85,SE,134,4.0,12.0,68,0.00,,,0.00,0.0,meteohub,2013-04-24 10:19:00,
2013-04-24 06:24:00,60.6,50.0,29.85,SSE,166,2.0,12.0,68,0.00,,,0.00,0.0,meteohub,2013-04-24 10:24:00,
2013-04-24 06:29:00,61.0,50.4,29.86,SW,229,5.0,15.0,68,0.00,,,0.00,0.0,meteohub,2013-04-24 10:29:00,
2013-04-24 06:34:00,61.0,50.7,29.87,WNW,288,4.0,15.0,69,0.00,,,0.00,0.0,meteohub,2013-04-24 10:34:00,
2013-04-24 06:39:00,60.6,50.4,29.86,SW,215,5.0,15.0,69,0.00,,,0.00,0.0,meteohub,2013-04-24 10:39:00,
2013-04-24 06:44:00,60.4,51.1,29.87,SSW,193,2.0,14.0,71,0.00,,,0.00,0.0,meteohub,2013-04-24 10:44:00,
2013-04-24 06:49:00,60.1,51.8,29.87,West,267,3.0,12.0,74,0.00,,,0.00,0.0,meteohub,2013-04-24 10:49:00,
2013-04-24 06:54:00,59.5,51.6,29.88,SSW,200,1.0,9.0,75,0.02,,,0.02,0.0,meteohub,2013-04-24 10:54:00,
2013-04-24 06:59:00,59.0,52.2,29.88,SSW,205,0.0,9.0,78,0.02,,,0.02,0.0,meteohub,2013-04-24 10:59:00,
2013-04-24 07:04:00,58.6,52.5,29.88,SSE,154,0.0,5.0,80,0.06,,,0.06,0.0,meteohub,2013-04-24 11:04:00,
2013-04-24 07:10:00,58.1,52.3,29.88,SE,142,1.0,5.0,81,0.06,,,0.06,0.0,meteohub,2013-04-24 11:10:00,
2013-04-24 07:15:00,57.7,52.3,29.88,SW,215,3.0,7.0,82,0.07,,,0.07,0.0,meteohub,2013-04-24 11:15:00,
2013-04-24 07:20:00,57.4,52.5,29.89,SSW,205,2.0,7.0,84,0.08,,,0.08,0.0,meteohub,2013-04-24 11:20:00,
2013-04-24 07:25:00,57.0,52.2,29.89,SSE,159,1.0,7.0,84,0.09,,,0.09,0.0,meteohub,2013-04-24 11:25:00,
2013-04-24 07:30:00,57.0,52.9,29.89,SW,220,2.0,8.0,86,0.10,,,0.10,0.0,meteohub,2013-04-24 11:30:00,
2013-04-24 07:35:00,56.8,52.7,29.90,SSW,193,2.0,7.0,86,0.10,,,0.10,0.0,meteohub,2013-04-24 11:35:00,
2013-04-24 07:40:00,56.7,52.9,29.90,SSW,210,2.0,7.0,87,0.11,,,0.11,0.0,meteohub,2013-04-24 11:40:00,
2013-04-24 07:45:00,56.7,52.9,29.89,SSE,148,2.0,7.0,87,0.11,,,0.12,5.0,meteohub,2013-04-24 11:45:00,
2013-04-24 07:50:00,56.7,52.9,29.88,SSE,152,2.0,7.0,87,0.10,,,0.12,25.0,meteohub,2013-04-24 11:50:00,
2013-04-24 07:56:00,56.7,53.1,29.88,South,177,4.0,5.0,88,0.09,,,0.12,21.0,meteohub,2013-04-24 11:56:00,
2013-04-24 08:01:00,56.5,52.9,29.87,SSE,153,3.0,6.0,88,0.06,,,0.12,25.0,meteohub,2013-04-24 12:01:00,
2013-04-24 08:06:00,56.7,53.4,29.86,SSE,150,1.0,6.0,89,0.06,,,0.12,91.0,meteohub,2013-04-24 12:06:00,
2013-04-24 08:11:00,56.7,53.4,29.86,South,188,2.0,6.0,89,0.05,,,0.12,70.0,meteohub,2013-04-24 12:11:00,
2013-04-24 08:16:00,57.0,53.4,29.86,SE,144,4.0,6.0,88,0.04,,,0.12,51.0,meteohub,2013-04-24 12:16:00,
2013-04-24 08:21:00,57.0,53.4,29.86,SW,225,4.0,5.0,88,0.04,,,0.12,35.0,meteohub,2013-04-24 12:21:00,
2013-04-24 08:26:00,57.2,53.6,29.86,SSE,167,3.0,5.0,88,0.03,,,0.12,19.0,meteohub,2013-04-24 12:26:00,
2013-04-24 08:31:00,57.4,53.8,29.87,SSW,198,3.0,7.0,88,0.02,,,0.12,14.0,meteohub,2013-04-24 12:31:00,
2013-04-24 08:37:00,57.4,53.8,29.86,SSE,168,3.0,8.0,88,0.01,,,0.12,14.0,meteohub,2013-04-24 12:37:00,
2013-04-24 08:42:00,57.4,53.8,29.85,SSE,159,3.0,8.0,88,0.01,,,0.13,25.0,meteohub,2013-04-24 12:42:00,
2013-04-24 08:47:00,57.2,54.0,29.84,SE,146,2.0,8.0,89,0.02,,,0.14,39.0,meteohub,2013-04-24 12:47:00,
2013-04-24 08:52:00,57.2,54.0,29.84,SSE,156,2.0,8.0,89,0.02,,,0.14,63.0,meteohub,2013-04-24 12:52:00,
2013-04-24 08:57:00,57.2,54.3,29.85,South,188,2.0,6.0,90,0.02,,,0.14,62.0,meteohub,2013-04-24 12:57:00,
2013-04-24 09:02:00,57.4,54.5,29.86,SSE,161,3.0,4.0,90,0.02,,,0.14,42.0,meteohub,2013-04-24 13:02:00,
2013-04-24 09:07:00,57.4,54.5,29.85,South,175,1.0,4.0,90,0.02,,,0.14,77.0,meteohub,2013-04-24 13:07:00,
2013-04-24 09:12:00,57.4,54.1,29.85,SSW,196,3.0,4.0,89,0.02,,,0.14,39.0,meteohub,2013-04-24 13:12:00,
2013-04-24 09:17:00,57.4,54.1,29.86,SSW,205,2.0,5.0,89,0.02,,,0.14,21.0,meteohub,2013-04-24 13:17:00,
2013-04-24 09:22:00,57.4,54.5,29.87,South,183,1.0,5.0,90,0.02,,,0.14,12.0,meteohub,2013-04-24 13:22:00,
2013-04-24 09:27:00,57.4,54.1,29.86,South,175,2.0,5.0,89,0.02,,,0.14,14.0,meteohub,2013-04-24 13:27:00,
2013-04-24 09:32:00,57.4,54.1,29.86,SW,219,2.0,5.0,89,0.03,,,0.15,7.0,meteohub,2013-04-24 13:32:00,
2013-04-24 09:37:00,57.2,54.3,29.85,SSE,150,3.0,6.0,90,0.06,,,0.19,14.0,meteohub,2013-04-24 13:37:00,
2013-04-24 09:42:00,57.2,54.3,29.86,South,173,1.0,6.0,90,0.06,,,0.20,18.0,meteohub,2013-04-24 13:42:00,
2013-04-24 09:47:00,57.0,54.1,29.86,SSE,156,4.0,6.0,90,0.07,,,0.21,21.0,meteohub,2013-04-24 13:47:00,
2013-04-24 09:52:00,57.0,54.5,29.83,SW,221,1.0,9.0,91,0.10,,,0.24,39.0,meteohub,2013-04-24 13:52:00,
2013-04-24 09:57:00,57.2,54.7,29.86,WSW,249,6.0,9.0,91,0.12,,,0.26,21.0,meteohub,2013-04-24 13:57:00,
2013-04-24 10:02:00,57.2,54.7,29.86,WSW,242,3.0,8.0,91,0.13,,,0.27,32.0,meteohub,2013-04-24 14:02:00,
2013-04-24 10:08:00,57.2,54.9,29.85,South,173,4.0,8.0,92,0.16,,,0.30,39.0,meteohub,2013-04-24 14:08:00,
2013-04-24 10:13:00,57.2,54.9,29.85,SW,219,3.0,8.0,92,0.20,,,0.34,46.0,meteohub,2013-04-24 14:13:00,
2013-04-24 10:18:00,57.4,55.0,29.85,South,173,2.0,9.0,92,0.20,,,0.34,37.0,meteohub,2013-04-24 14:18:00,
2013-04-24 10:23:00,57.4,55.0,29.85,ESE,112,2.0,10.0,92,0.24,,,0.38,23.0,meteohub,2013-04-24 14:23:00,
2013-04-24 10:28:00,57.4,55.0,29.84,SSE,167,4.0,10.0,92,0.26,,,0.40,28.0,meteohub,2013-04-24 14:28:00,
2013-04-24 10:33:00,57.6,55.6,29.84,SW,233,6.0,10.0,93,0.26,,,0.42,42.0,meteohub,2013-04-24 14:33:00,
2013-04-24 10:38:00,57.6,55.6,29.86,SSW,192,7.0,8.0,93,0.26,,,0.45,51.0,meteohub,2013-04-24 14:38:00,
2013-04-24 10:43:00,57.7,55.8,29.87,SW,227,2.0,9.0,93,0.28,,,0.47,19.0,meteohub,2013-04-24 14:43:00,
2013-04-24 10:48:00,57.9,55.9,29.88,WNW,294,5.0,12.0,93,0.28,,,0.51,16.0,meteohub,2013-04-24 14:48:00,
2013-04-24 10:53:00,57.7,55.4,29.89,NNW,337,14.0,14.0,92,0.29,,,0.55,30.0,meteohub,2013-04-24 14:53:00,
2013-04-24 10:59:00,55.9,51.8,29.92,West,270,10.0,23.0,86,0.37,,,0.60,16.0,meteohub,2013-04-24 14:59:00,
2013-04-24 11:04:00,54.1,50.7,29.91,NW,304,6.0,23.0,88,0.37,,,0.65,30.0,meteohub,2013-04-24 15:04:00,
2013-04-24 11:09:00,53.6,50.4,29.90,WNW,298,5.0,23.0,89,0.37,,,0.68,39.0,meteohub,2013-04-24 15:09:00,
2013-04-24 11:14:00,52.9,50.4,29.91,WNW,285,2.0,23.0,91,0.38,,,0.70,40.0,meteohub,2013-04-24 15:14:00,
2013-04-24 11:20:00,52.5,50.2,29.92,WNW,294,0.0,12.0,92,0.38,,,0.73,37.0,meteohub,2013-04-24 15:20:00,
2013-04-24 11:25:00,52.5,50.5,29.91,SSE,152,1.0,7.0,93,0.38,,,0.76,30.0,meteohub,2013-04-24 15:25:00,
2013-04-24 11:30:00,52.5,50.5,29.91,SE,128,0.0,6.0,93,0.38,,,0.78,32.0,meteohub,2013-04-24 15:30:00,
2013-04-24 11:35:00,52.5,50.9,29.91,SSE,159,1.0,4.0,94,0.35,,,0.81,35.0,meteohub,2013-04-24 15:35:00,
2013-04-24 11:40:00,52.9,51.3,29.91,SE,145,3.0,3.0,94,0.33,,,0.82,40.0,meteohub,2013-04-24 15:40:00,
2013-04-24 11:45:00,52.9,51.3,29.91,SSE,161,3.0,4.0,94,0.32,,,0.84,40.0,meteohub,2013-04-24 15:45:00,
2013-04-24 11:50:00,53.1,51.6,29.91,SSE,154,3.0,5.0,95,0.28,,,0.86,63.0,meteohub,2013-04-24 15:50:00,
2013-04-24 11:55:00,53.2,51.6,29.92,SSW,195,5.0,5.0,94,0.24,,,0.87,84.0,meteohub,2013-04-24 15:55:00,
2013-04-24 12:00:00,53.2,51.6,29.93,South,187,6.0,7.0,94,0.23,,,0.89,47.0,meteohub,2013-04-24 16:00:00,
2013-04-24 12:06:00,53.4,51.8,29.92,SSE,165,10.0,10.0,94,0.21,,,0.90,62.0,meteohub,2013-04-24 16:06:00,
2013-04-24 12:11:00,53.4,51.8,29.93,SSE,150,8.0,11.0,94,0.19,,,0.91,84.0,meteohub,2013-04-24 16:11:00,
2013-04-24 12:16:00,53.6,52.0,29.92,SW,236,3.0,12.0,94,0.18,,,0.92,69.0,meteohub,2013-04-24 16:16:00,
2013-04-24 12:21:00,53.8,52.2,29.91,SSE,157,4.0,14.0,94,0.18,,,0.94,90.0,meteohub,2013-04-24 16:21:00,
2013-04-24 12:26:00,54.1,52.7,29.93,SSW,198,2.0,14.0,95,0.16,,,0.94,21.0,meteohub,2013-04-24 16:26:00,
2013-04-24 12:31:00,54.3,52.9,29.94,WSW,257,9.0,11.0,95,0.16,,,0.95,19.0,meteohub,2013-04-24 16:31:00,
2013-04-24 12:36:00,54.3,52.3,29.95,WSW,257,9.0,18.0,93,0.16,,,0.97,56.0,meteohub,2013-04-24 16:36:00,
2013-04-24 12:41:00,53.2,50.0,29.97,WNW,290,16.0,24.0,89,0.15,,,0.98,49.0,meteohub,2013-04-24 16:41:00,
2013-04-24 12:46:00,50.4,46.6,29.98,West,272,17.0,24.0,87,0.14,,,0.99,42.0,meteohub,2013-04-24 16:46:00,
2013-04-24 12:51:00,48.2,45.1,30.00,WNW,294,16.0,24.0,89,0.14,,,1.01,53.0,meteohub,2013-04-24 16:51:00,
2013-04-24 12:56:00,47.1,44.4,30.00,North,8,11.0,23.0,90,0.15,,,1.03,74.0,meteohub,2013-04-24 16:56:00,
2013-04-24 13:02:00,46.2,43.7,30.01,West,280,17.0,23.0,91,0.17,,,1.06,114.0,meteohub,2013-04-24 17:02:00,
2013-04-24 13:07:00,45.9,43.3,30.02,WSW,256,11.0,21.0,91,0.16,,,1.06,139.0,meteohub,2013-04-24 17:07:00,
2013-04-24 13:12:00,45.7,43.5,30.02,WNW,302,11.0,21.0,92,0.15,,,1.07,183.0,meteohub,2013-04-24 17:12:00,
2013-04-24 13:17:00,45.5,43.0,30.01,WSW,243,5.0,23.0,91,0.15,,,1.08,258.0,meteohub,2013-04-24 17:17:00,
2013-04-24 13:22:00,45.5,43.3,30.02,WNW,291,13.0,23.0,92,0.14,,,1.08,341.0,meteohub,2013-04-24 17:22:00,
2013-04-24 13:27:00,45.7,43.2,30.03,WNW,285,17.0,23.0,91,0.13,,,1.08,250.0,meteohub,2013-04-24 17:27:00,
2013-04-24 13:32:00,45.7,43.2,30.03,WNW,298,17.0,20.0,91,0.13,,,1.08,308.0,meteohub,2013-04-24 17:32:00,
2013-04-24 13:37:00,45.9,43.3,30.03,WNW,302,14.0,20.0,91,0.10,,,1.08,306.0,meteohub,2013-04-24 17:37:00,
2013-04-24 13:42:00,46.0,43.3,30.04,NW,308,10.0,22.0,90,0.09,,,1.08,237.0,meteohub,2013-04-24 17:42:00,
2013-04-24 13:47:00,46.0,43.3,30.04,WNW,292,8.0,22.0,90,0.10,,,1.09,181.0,meteohub,2013-04-24 17:47:00,
2013-04-24 13:52:00,46.0,43.0,30.04,WNW,300,9.0,22.0,89,0.07,,,1.09,181.0,meteohub,2013-04-24 17:52:00,
2013-04-24 13:57:00,45.9,42.8,30.05,WNW,285,13.0,20.0,89,0.05,,,1.09,188.0,meteohub,2013-04-24 17:57:00,
2013-04-24 14:02:00,45.3,41.9,30.04,WNW,288,8.0,20.0,88,0.03,,,1.09,192.0,meteohub,2013-04-24 18:02:00,
2013-04-24 14:07:00,45.3,42.3,30.04,West,270,5.0,23.0,89,0.02,,,1.09,214.0,meteohub,2013-04-24 18:07:00,
2013-04-24 14:12:00,45.3,42.3,30.05,WNW,292,15.0,23.0,89,0.02,,,1.09,195.0,meteohub,2013-04-24 18:12:00,
2013-04-24 14:17:00,45.5,42.1,30.05,WNW,295,6.0,20.0,88,0.01,,,1.09,193.0,meteohub,2013-04-24 18:17:00,
2013-04-24 14:22:00,45.7,42.6,30.05,NW,322,9.0,20.0,89,0.01,,,1.09,213.0,meteohub,2013-04-24 18:22:00,
2013-04-24 14:27:00,45.9,42.4,30.06,WNW,290,8.0,20.0,88,0.01,,,1.09,246.0,meteohub,2013-04-24 18:27:00,
2013-04-24 14:32:00,45.9,42.4,30.06,WNW,282,4.0,16.0,88,0.01,,,1.09,269.0,meteohub,2013-04-24 18:32:00,
2013-04-24 14:37:00,46.0,42.6,30.06,WNW,290,10.0,19.0,88,0.01,,,1.09,299.0,meteohub,2013-04-24 18:37:00,
2013-04-24 14:42:00,46.0,42.1,30.07,NW,308,10.0,19.0,86,0.00,,,1.09,179.0,meteohub,2013-04-24 18:42:00,
2013-04-24 14:47:00,45.9,41.9,30.07,WNW,289,10.0,20.0,86,0.00,,,1.09,172.0,meteohub,2013-04-24 18:47:00,
2013-04-24 14:52:00,45.9,42.4,30.07,West,263,5.0,20.0,88,0.00,,,1.09,118.0,meteohub,2013-04-24 18:52:00,
2013-04-24 14:57:00,45.7,41.7,30.08,West,273,9.0,20.0,86,0.00,,,1.09,127.0,meteohub,2013-04-24 18:57:00,
2013-04-24 15:02:00,45.5,41.9,30.08,WNW,292,7.0,18.0,87,0.00,,,1.09,123.0,meteohub,2013-04-24 19:02:00,
2013-04-24 15:07:00,45.3,41.7,30.08,WNW,285,7.0,16.0,87,0.00,,,1.09,109.0,meteohub,2013-04-24 19:07:00,
2013-04-24 15:12:00,45.1,41.7,30.09,NW,311,9.0,16.0,88,0.00,,,1.09,113.0,meteohub,2013-04-24 19:12:00,
2013-04-24 15:17:00,45.1,41.5,30.09,NW,321,15.0,16.0,87,0.00,,,1.09,109.0,meteohub,2013-04-24 19:17:00,
2013-04-24 15:22:00,44.8,41.4,30.10,WNW,288,13.0,16.0,88,0.00,,,1.09,93.0,meteohub,2013-04-24 19:22:00,
2013-04-24 15:27:00,44.4,40.8,30.11,WNW,285,10.0,19.0,87,0.00,,,1.09,139.0,meteohub,2013-04-24 19:27:00,
2013-04-24 15:32:00,44.4,40.8,30.11,WNW,296,6.0,19.0,87,0.00,,,1.09,343.0,meteohub,2013-04-24 19:32:00,
2013-04-24 15:37:00,44.8,41.2,30.11,NW,309,8.0,19.0,87,0.00,,,1.09,120.0,meteohub,2013-04-24 19:37:00,
2013-04-24 15:43:00,44.8,40.8,30.12,NW,309,8.0,19.0,86,0.00,,,1.09,54.0,meteohub,2013-04-24 19:43:00,
2013-04-24 15:48:00,44.2,40.1,30.13,WNW,292,7.0,18.0,85,0.00,,,1.09,105.0,meteohub,2013-04-24 19:48:00,
2013-04-24 15:53:00,43.9,39.0,30.14,West,277,4.0,18.0,83,0.00,,,1.09,98.0,meteohub,2013-04-24 19:53:00,
2013-04-24 15:58:00,43.5,39.4,30.14,NNW,338,9.0,20.0,85,0.00,,,1.09,72.0,meteohub,2013-04-24 19:58:00,
2013-04-24 16:03:00,43.5,39.4,30.14,WNW,291,14.0,20.0,85,0.00,,,1.09,74.0,meteohub,2013-04-24 20:03:00,
2013-04-24 16:08:00,43.5,39.4,30.14,West,276,10.0,20.0,85,0.00,,,1.09,397.0,meteohub,2013-04-24 20:08:00,
2013-04-24 16:13:00,44.8,40.5,30.14,WNW,298,13.0,18.0,85,0.00,,,1.09,313.0,meteohub,2013-04-24 20:13:00,
2013-04-24 16:18:00,45.0,40.1,30.14,WNW,296,9.0,18.0,83,0.00,,,1.09,155.0,meteohub,2013-04-24 20:18:00,
2013-04-24 16:23:00,44.6,39.2,30.14,NW,311,9.0,14.0,81,0.00,,,1.09,155.0,meteohub,2013-04-24 20:23:00,
2013-04-24 16:28:00,44.4,39.2,30.15,WNW,290,10.0,18.0,82,0.00,,,1.09,135.0,meteohub,2013-04-24 20:28:00,
2013-04-24 16:33:00,44.4,39.2,30.16,NW,320,8.0,19.0,82,0.00,,,1.09,155.0,meteohub,2013-04-24 20:33:00,
2013-04-24 16:39:00,44.4,39.6,30.16,West,272,3.0,19.0,83,0.00,,,1.09,141.0,meteohub,2013-04-24 20:39:00,
2013-04-24 16:44:00,44.8,39.9,30.15,WNW,298,6.0,19.0,83,0.00,,,1.09,135.0,meteohub,2013-04-24 20:44:00,
2013-04-24 16:49:00,44.8,39.6,30.16,WNW,302,8.0,16.0,82,0.00,,,1.09,95.0,meteohub,2013-04-24 20:49:00,
2013-04-24 16:54:00,44.8,39.6,30.16,West,281,11.0,14.0,82,0.00,,,1.09,211.0,meteohub,2013-04-24 20:54:00,
2013-04-24 16:59:00,45.0,39.6,30.16,NW,313,7.0,14.0,81,0.00,,,1.09,227.0,meteohub,2013-04-24 20:59:00,
2013-04-24 17:04:00,45.3,39.6,30.16,WNW,292,6.0,14.0,80,0.00,,,1.09,114.0,meteohub,2013-04-24 21:04:00,
2013-04-24 17:09:00,45.3,39.6,30.17,WNW,288,10.0,14.0,80,0.00,,,1.09,100.0,meteohub,2013-04-24 21:09:00,
2013-04-24 17:14:00,45.1,39.0,30.17,West,281,8.0,14.0,79,0.00,,,1.09,109.0,meteohub,2013-04-24 21:14:00,
2013-04-24 17:19:00,45.3,39.2,30.17,NW,312,3.0,14.0,79,0.00,,,1.09,193.0,meteohub,2013-04-24 21:19:00,
2013-04-24 17:24:00,45.3,39.2,30.17,West,275,11.0,16.0,79,0.00,,,1.09,139.0,meteohub,2013-04-24 21:24:00,
2013-04-24 17:30:00,45.5,39.4,30.17,WNW,282,7.0,16.0,79,0.00,,,1.09,125.0,meteohub,2013-04-24 21:30:00,
2013-04-24 17:35:00,45.7,39.2,30.18,NW,319,7.0,14.0,78,0.00,,,1.09,93.0,meteohub,2013-04-24 21:35:00,
2013-04-24 17:40:00,45.5,39.0,30.18,West,279,7.0,13.0,78,0.00,,,1.09,134.0,meteohub,2013-04-24 21:40:00,
2013-04-24 17:45:00,45.7,39.2,30.18,WNW,294,6.0,14.0,78,0.00,,,1.09,185.0,meteohub,2013-04-24 21:45:00,
2013-04-24 17:50:00,45.9,39.4,30.18,West,277,5.0,14.0,78,0.00,,,1.09,135.0,meteohub,2013-04-24 21:50:00,
2013-04-24 17:55:00,45.9,39.0,30.19,WNW,301,11.0,13.0,77,0.00,,,1.09,88.0,meteohub,2013-04-24 21:55:00,
2013-04-24 18:00:00,45.7,38.8,30.19,WNW,285,8.0,13.0,77,0.00,,,1.09,54.0,meteohub,2013-04-24 22:00:00,
2013-04-24 18:05:00,45.7,38.8,30.19,NW,309,6.0,13.0,77,0.00,,,1.09,39.0,meteohub,2013-04-24 22:05:00,
2013-04-24 18:10:00,45.5,39.0,30.19,WSW,255,4.0,12.0,78,0.00,,,1.09,35.0,meteohub,2013-04-24 22:10:00,
2013-04-24 18:15:00,45.3,39.2,30.20,WNW,294,8.0,12.0,79,0.00,,,1.09,33.0,meteohub,2013-04-24 22:15:00,
2013-04-24 18:21:00,45.3,38.8,30.20,West,281,3.0,12.0,78,0.00,,,1.09,39.0,meteohub,2013-04-24 22:21:00,
2013-04-24 18:26:00,45.3,39.6,30.20,WNW,298,2.0,12.0,80,0.00,,,1.09,47.0,meteohub,2013-04-24 22:26:00,
2013-04-24 18:31:00,45.3,39.6,30.21,WNW,301,5.0,11.0,80,0.00,,,1.09,83.0,meteohub,2013-04-24 22:31:00,
2013-04-24 18:36:00,45.5,39.7,30.21,West,277,3.0,10.0,80,0.00,,,1.09,76.0,meteohub,2013-04-24 22:36:00,
2013-04-24 18:41:00,45.7,39.9,30.21,West,279,2.0,8.0,80,0.00,,,1.09,44.0,meteohub,2013-04-24 22:41:00,
2013-04-24 18:46:00,45.7,39.2,30.22,WNW,286,7.0,8.0,78,0.00,,,1.09,35.0,meteohub,2013-04-24 22:46:00,
2013-04-24 18:51:00,45.7,38.8,30.22,West,281,8.0,12.0,77,0.00,,,1.09,28.0,meteohub,2013-04-24 22:51:00,
2013-04-24 18:56:00,45.5,38.7,30.22,West,275,8.0,12.0,77,0.00,,,1.09,33.0,meteohub,2013-04-24 22:56:00,
2013-04-24 19:01:00,45.5,38.7,30.22,WNW,301,9.0,12.0,77,0.00,,,1.09,32.0,meteohub,2013-04-24 23:01:00,
2013-04-24 19:07:00,45.3,38.8,30.22,NW,311,10.0,11.0,78,0.00,,,1.09,23.0,meteohub,2013-04-24 23:07:00,
2013-04-24 19:12:00,45.3,38.8,30.23,NW,317,5.0,10.0,78,0.00,,,1.09,19.0,meteohub,2013-04-24 23:12:00,
2013-04-24 19:17:00,45.3,38.8,30.23,WNW,302,3.0,10.0,78,0.00,,,1.09,16.0,meteohub,2013-04-24 23:17:00,
2013-04-24 19:22:00,45.3,38.8,30.23,WNW,285,7.0,10.0,78,0.00,,,1.09,12.0,meteohub,2013-04-24 23:22:00,
2013-04-24 19:27:00,45.3,38.8,30.23,NW,312,3.0,10.0,78,0.00,,,1.09,11.0,meteohub,2013-04-24 23:27:00,
2013-04-24 19:32:00,45.1,39.0,30.23,West,279,5.0,10.0,79,0.00,,,1.09,14.0,meteohub,2013-04-24 23:32:00,
2013-04-24 19:37:00,45.1,39.0,30.23,West,271,2.0,9.0,79,0.00,,,1.09,23.0,meteohub,2013-04-24 23:37:00,
2013-04-24 19:42:00,45.1,39.0,30.23,NW,304,5.0,8.0,79,0.00,,,1.09,26.0,meteohub,2013-04-24 23:42:00,
2013-04-24 19:47:00,45.1,39.0,30.24,WNW,294,3.0,8.0,79,0.00,,,1.09,18.0,meteohub,2013-04-24 23:47:00,
2013-04-24 19:52:00,45.1,39.0,30.24,WNW,294,2.0,8.0,79,0.00,,,1.09,11.0,meteohub,2013-04-24 23:52:00,
2013-04-24 19:57:00,45.1,39.4,30.24,WNW,302,2.0,8.0,80,0.00,,,1.09,7.0,meteohub,2013-04-24 23:57:00,
2013-04-24 20:02:00,45.1,39.0,30.24,WNW,294,7.0,7.0,79,0.00,,,1.09,0.0,meteohub,2013-04-25 00:02:00,
2013-04-24 20:07:00,45.1,39.0,30.25,WNW,282,4.0,9.0,79,0.00,,,0.00,0.0,meteohub,2013-04-25 00:07:00,
2013-04-24 20:12:00,45.1,39.0,30.25,West,263,5.0,9.0,79,0.00,,,0.00,0.0,meteohub,2013-04-25 00:12:00,
2013-04-24 20:17:00,45.0,38.8,30.25,West,275,5.0,9.0,79,0.00,,,0.00,5.0,meteohub,2013-04-25 00:17:00,
2013-04-24 20:22:00,45.0,38.5,30.25,WNW,293,7.0,9.0,78,0.00,,,0.00,0.0,meteohub,2013-04-25 00:22:00,
2013-04-24 20:27:00,44.8,38.3,30.25,West,274,4.0,9.0,78,0.00,,,0.00,0.0,meteohub,2013-04-25 00:27:00,
2013-04-24 20:32:00,44.8,38.3,30.25,WNW,299,2.0,9.0,78,0.00,,,0.00,0.0,meteohub,2013-04-25 00:32:00,
2013-04-24 20:38:00,44.8,39.0,30.26,WNW,300,2.0,9.0,80,0.00,,,0.00,0.0,meteohub,2013-04-25 00:38:00,
2013-04-24 20:43:00,44.6,39.2,30.26,WNW,284,0.0,7.0,81,0.00,,,0.00,0.0,meteohub,2013-04-25 00:43:00,
2013-04-24 20:48:00,44.4,39.0,30.26,WNW,284,2.0,5.0,81,0.00,,,0.00,0.0,meteohub,2013-04-25 00:48:00,
2013-04-24 20:53:00,44.4,39.0,30.26,WNW,289,1.0,5.0,81,0.00,,,0.00,0.0,meteohub,2013-04-25 00:53:00,
2013-04-24 20:58:00,44.4,39.0,30.26,WNW,289,0.0,3.0,81,0.00,,,0.00,0.0,meteohub,2013-04-25 00:58:00,
2013-04-24 21:03:00,44.4,39.2,30.27,West,277,3.0,3.0,82,0.00,,,0.00,0.0,meteohub,2013-04-25 01:03:00,
2013-04-24 21:09:00,44.2,38.8,30.27,WNW,290,2.0,5.0,81,0.00,,,0.00,0.0,meteohub,2013-04-25 01:09:00,
2013-04-24 21:14:00,44.4,38.7,30.28,West,281,2.0,5.0,80,0.00,,,0.00,0.0,meteohub,2013-04-25 01:14:00,
2013-04-24 21:19:00,44.4,38.7,30.28,WSW,257,1.0,5.0,80,0.00,,,0.00,0.0,meteohub,2013-04-25 01:19:00,
2013-04-24 21:24:00,44.4,38.7,30.28,West,271,0.0,5.0,80,0.00,,,0.00,0.0,meteohub,2013-04-25 01:24:00,
2013-04-24 21:29:00,44.4,38.3,30.28,West,269,1.0,5.0,79,0.00,,,0.00,0.0,meteohub,2013-04-25 01:29:00,
2013-04-24 21:35:00,44.4,38.7,30.29,WNW,289,1.0,3.0,80,0.00,,,0.00,0.0,meteohub,2013-04-25 01:35:00,
2013-04-24 21:40:00,44.4,38.7,30.29,WNW,289,0.0,3.0,80,0.00,,,0.00,0.0,meteohub,2013-04-25 01:40:00,
2013-04-24 21:45:00,44.4,38.7,30.29,WNW,292,1.0,4.0,80,0.00,,,0.00,0.0,meteohub,2013-04-25 01:45:00,
2013-04-24 21:50:00,44.2,38.5,30.29,WNW,294,1.0,3.0,80,0.00,,,0.00,0.0,meteohub,2013-04-25 01:50:00,
2013-04-24 21:55:00,44.2,38.5,30.30,WNW,294,0.0,3.0,80,0.00,,,0.00,0.0,meteohub,2013-04-25 01:55:00,
2013-04-24 22:01:00,44.2,38.5,30.30,WNW,290,1.0,2.0,80,0.00,,,0.00,0.0,meteohub,2013-04-25 02:01:00,
2013-04-24 22:06:00,44.2,38.5,30.30,WNW,286,1.0,2.0,80,0.00,,,0.00,0.0,meteohub,2013-04-25 02:06:00,
2013-04-24 22:11:00,44.2,38.5,30.30,WNW,286,0.0,2.0,80,0.00,,,0.00,0.0,meteohub,2013-04-25 02:11:00,
2013-04-24 22:16:00,44.1,38.7,30.30,WNW,287,1.0,2.0,81,0.00,,,0.00,0.0,meteohub,2013-04-25 02:16:00,
2013-04-24 22:21:00,44.1,38.8,30.31,WNW,287,0.0,2.0,82,0.00,,,0.00,0.0,meteohub,2013-04-25 02:21:00,
2013-04-24 22:26:00,44.1,38.8,30.31,WSW,250,0.0,2.0,82,0.00,,,0.00,0.0,meteohub,2013-04-25 02:26:00,
2013-04-24 22:31:00,44.1,38.7,30.31,WNW,290,2.0,3.0,81,0.00,,,0.00,0.0,meteohub,2013-04-25 02:31:00,
2013-04-24 22:37:00,44.1,38.7,30.31,West,277,1.0,3.0,81,0.00,,,0.00,0.0,meteohub,2013-04-25 02:37:00,
2013-04-24 22:42:00,44.1,38.7,30.31,West,270,2.0,3.0,81,0.00,,,0.00,0.0,meteohub,2013-04-25 02:42:00,
2013-04-24 22:47:00,43.9,38.1,30.32,NW,312,2.0,3.0,80,0.00,,,0.00,0.0,meteohub,2013-04-25 02:47:00,
2013-04-24 22:52:00,43.7,37.9,30.32,WNW,300,2.0,3.0,80,0.00,,,0.00,0.0,meteohub,2013-04-25 02:52:00,
2013-04-24 22:57:00,43.5,37.8,30.32,NW,311,1.0,3.0,80,0.00,,,0.00,0.0,meteohub,2013-04-25 02:57:00,
2013-04-24 23:02:00,43.3,37.6,30.32,NW,316,2.0,3.0,80,0.00,,,0.00,0.0,meteohub,2013-04-25 03:02:00,
2013-04-24 23:07:00,43.2,37.0,30.32,WNW,295,3.0,3.0,79,0.00,,,0.00,0.0,meteohub,2013-04-25 03:07:00,
2013-04-24 23:12:00,42.6,36.5,30.32,WNW,302,1.0,6.0,79,0.00,,,0.00,0.0,meteohub,2013-04-25 03:12:00,
2013-04-24 23:17:00,42.4,36.3,30.33,NW,309,1.0,6.0,79,0.00,,,0.00,0.0,meteohub,2013-04-25 03:17:00,
2013-04-24 23:22:00,42.3,36.5,30.33,NW,308,0.0,6.0,80,0.00,,,0.00,0.0,meteohub,2013-04-25 03:22:00,
2013-04-24 23:27:00,41.9,36.5,30.33,NW,309,2.0,3.0,81,0.00,,,0.00,0.0,meteohub,2013-04-25 03:27:00,
2013-04-24 23:33:00,41.5,36.1,30.33,NW,309,0.0,3.0,81,0.00,,,0.00,0.0,meteohub,2013-04-25 03:33:00,
2013-04-24 23:38:00,41.2,36.1,30.33,NW,309,0.0,2.0,82,0.00,,,0.00,0.0,meteohub,2013-04-25 03:38:00,
2013-04-24 23:43:00,40.8,36.1,30.33,NW,309,0.0,2.0,83,0.00,,,0.00,0.0,meteohub,2013-04-25 03:43:00,
2013-04-24 23:48:00,40.5,35.8,30.34,NW,309,0.0,1.0,83,0.00,,,0.00,0.0,meteohub,2013-04-25 03:48:00,
2013-04-24 23:53:00,39.9,35.4,30.34,NW,309,0.0,2.0,84,0.00,,,0.00,0.0,meteohub,2013-04-25 03:53:00,
2013-04-24 23:58:00,39.4,35.2,30.34,NW,309,0.0,2.0,85,0.00,,,0.00,0.0,meteohub,2013-04-25 03:58:00,